• In Deutschland
  • Länderverzeichnis
  • Für 7 Tage
  • Wassertemperatur
  • Satellitenkarten
  • Wetterkarte
  • Widgets
  • user-avatar
    Anmelden

    Stündliche Wetter Gjirokaster

    Heute, 30 April, Sonntag

    Zeit Temperatur Niederschläge Wind Luftdruck Luftfeuchtigkeit
    00:00 +6°C° 0 mm 2 m/S 646 mmHg 63%
    01:00 +6°C° 0 mm 2 m/S 646 mmHg 69%
    02:00 +6°C° 0 mm 2 m/S 646 mmHg 71%
    03:00 +4°C° 0 mm 3 m/S 646 mmHg 73%
    04:00 +4°C° 0 mm 3 m/S 646 mmHg 75%
    05:00 +7°C° 0 mm 3 m/S 647 mmHg 71%
    06:00 +9°C° 0 mm 3 m/S 647 mmHg 66%
    07:00 +13°C° 0 mm 2 m/S 648 mmHg 61%
    08:00 +14°C° 0,1 mm 3 m/S 648 mmHg 55%
    09:00 +16°C° 0,1 mm 3 m/S 649 mmHg 50%
    10:00 +18°C° 0,1 mm 4 m/S 649 mmHg 44%
    11:00 +18°C° 0,6 mm 4 m/S 649 mmHg 47%
    12:00 +17°C° 0,6 mm 4 m/S 649 mmHg 51%
    13:00 +16°C° 0,6 mm 5 m/S 649 mmHg 54%
    14:00 +15°C° 0,8 mm 4 m/S 649 mmHg 59%
    15:00 +14°C° 0,8 mm 4 m/S 648 mmHg 64%
    16:00 +13°C° 0,8 mm 4 m/S 648 mmHg 69%
    17:00 +12°C° 0,5 mm 4 m/S 648 mmHg 75%
    18:00 +10°C° 0,5 mm 4 m/S 648 mmHg 81%
    19:00 +9°C° 0,5 mm 3 m/S 648 mmHg 87%
    20:00 +8°C° 0,4 mm 3 m/S 648 mmHg 88%
    21:00 +8°C° 0,4 mm 3 m/S 648 mmHg 89%
    22:00 +7°C° 0,4 mm 3 m/S 648 mmHg 90%
    23:00 +7°C° 0,1 mm 3 m/S 648 mmHg 90%

    Morgen, 1 Mai, Montag

    Zeit Temperatur Niederschläge Wind Luftdruck Luftfeuchtigkeit
    00:00 +5°C° 0,1 mm 3 m/S 648 mmHg 90%
    01:00 +6°C° 0,1 mm 2 m/S 648 mmHg 90%
    02:00 +6°C° 0 mm 2 m/S 648 mmHg 89%
    03:00 +4°C° 0 mm 3 m/S 648 mmHg 88%
    04:00 +4°C° 0 mm 3 m/S 648 mmHg 87%
    05:00 +7°C° 0 mm 2 m/S 649 mmHg 82%
    06:00 +8°C° 0 mm 2 m/S 649 mmHg 76%
    07:00 +10°C° 0 mm 2 m/S 650 mmHg 70%
    08:00 +13°C° 0 mm 2 m/S 651 mmHg 62%
    09:00 +14°C° 0 mm 3 m/S 651 mmHg 54%
    10:00 +17°C° 0 mm 3 m/S 652 mmHg 46%
    11:00 +17°C° 0,1 mm 3 m/S 652 mmHg 47%
    12:00 +18°C° 0,1 mm 3 m/S 652 mmHg 48%
    13:00 +18°C° 0,1 mm 4 m/S 652 mmHg 49%
    14:00 +17°C° 0,6 mm 4 m/S 652 mmHg 55%
    15:00 +15°C° 0,6 mm 4 m/S 651 mmHg 60%
    16:00 +14°C° 0,6 mm 3 m/S 651 mmHg 66%
    17:00 +12°C° 0,4 mm 3 m/S 651 mmHg 75%
    18:00 +10°C° 0,4 mm 3 m/S 651 mmHg 83%
    19:00 +8°C° 0,4 mm 2 m/S 650 mmHg 91%
    20:00 +7°C° 0,1 mm 2 m/S 650 mmHg 92%
    21:00 +7°C° 0,1 mm 2 m/S 651 mmHg 93%
    22:00 +7°C° 0,1 mm 1 m/S 651 mmHg 93%
    23:00 +7°C° 0 mm 1 m/S 651 mmHg 93%

    übermorgen, 2 Mai, Dienstag

    Zeit Temperatur Niederschläge Wind Luftdruck Luftfeuchtigkeit
    00:00 +6°C° 0 mm 1 m/S 650 mmHg 93%
    01:00 +6°C° 0 mm 1 m/S 650 mmHg 93%
    02:00 +6°C° 0 mm 1 m/S 650 mmHg 93%
    03:00 +5°C° 0 mm 1 m/S 650 mmHg 93%
    04:00 +5°C° 0 mm 1 m/S 650 mmHg 94%
    05:00 +8°C° 0 mm 1 m/S 651 mmHg 87%
    06:00 +10°C° 0 mm 1 m/S 652 mmHg 81%
    07:00 +13°C° 0 mm 1 m/S 652 mmHg 74%
    08:00 +15°C° 0 mm 1 m/S 653 mmHg 65%
    09:00 +16°C° 0 mm 2 m/S 654 mmHg 57%
    10:00 +18°C° 0 mm 2 m/S 654 mmHg 48%
    11:00 +18°C° 0 mm 2 m/S 654 mmHg 47%
    12:00 +19°C° 0 mm 3 m/S 654 mmHg 46%
    13:00 +19°C° 0 mm 3 m/S 654 mmHg 44%
    14:00 +18°C° 0,1 mm 3 m/S 654 mmHg 47%
    15:00 +18°C° 0,1 mm 3 m/S 653 mmHg 50%
    16:00 +17°C° 0,1 mm 3 m/S 653 mmHg 53%
    17:00 +14°C° 0,1 mm 3 m/S 653 mmHg 62%
    18:00 +12°C° 0,1 mm 2 m/S 652 mmHg 71%
    19:00 +9°C° 0,1 mm 2 m/S 652 mmHg 80%
    20:00 +8°C° 0 mm 2 m/S 652 mmHg 81%
    21:00 +8°C° 0 mm 1 m/S 652 mmHg 82%
    22:00 +8°C° 0 mm 1 m/S 652 mmHg 83%
    23:00 +8°C° 0 mm 1 m/S 652 mmHg 84%

    3 Mai, Mittwoch

    Zeit Temperatur Niederschläge Wind Luftdruck Luftfeuchtigkeit
    00:00 +7°C° 0 mm 1 m/S 652 mmHg 86%
    01:00 +7°C° 0 mm 1 m/S 652 mmHg 87%
    02:00 +7°C° 0 mm 1 m/S 651 mmHg 88%
    03:00 +6°C° 0 mm 1 m/S 651 mmHg 88%
    04:00 +6°C° 0 mm 1 m/S 651 mmHg 89%
    05:00 +9°C° 0 mm 1 m/S 652 mmHg 81%
    06:00 +11°C° 0 mm 1 m/S 653 mmHg 74%
    07:00 +14°C° 0 mm 1 m/S 653 mmHg 66%
    08:00 +15°C° 0 mm 1 m/S 654 mmHg 60%
    09:00 +17°C° 0 mm 2 m/S 654 mmHg 53%
    10:00 +18°C° 0 mm 2 m/S 654 mmHg 47%
    11:00 +19°C° 0,1 mm 2 m/S 654 mmHg 46%
    12:00 +19°C° 0,1 mm 3 m/S 654 mmHg 46%
    13:00 +19°C° 0,1 mm 3 m/S 654 mmHg 45%
    14:00 +18°C° 0,2 mm 3 m/S 654 mmHg 48%
    15:00 +18°C° 0,2 mm 3 m/S 653 mmHg 51%
    16:00 +17°C° 0,2 mm 3 m/S 653 mmHg 54%
    17:00 +15°C° 0,1 mm 2 m/S 653 mmHg 63%
    18:00 +12°C° 0,1 mm 2 m/S 652 mmHg 73%
    19:00 +9°C° 0,1 mm 1 m/S 651 mmHg 82%
    20:00 +9°C° 0 mm 1 m/S 651 mmHg 84%
    21:00 +8°C° 0 mm 1 m/S 651 mmHg 86%
    22:00 +7°C° 0 mm 1 m/S 651 mmHg 88%
    23:00 +7°C° 0 mm 1 m/S 651 mmHg 89%

    4 Mai, Donnerstag

    Zeit Temperatur Niederschläge Wind Luftdruck Luftfeuchtigkeit
    00:00 +6°C° 0 mm 1 m/S 651 mmHg 89%
    01:00 +6°C° 0 mm 1 m/S 650 mmHg 89%
    02:00 +6°C° 0 mm 1 m/S 650 mmHg 89%
    03:00 +4°C° 0 mm 0 m/S 650 mmHg 89%
    04:00 +4°C° 0 mm 0 m/S 649 mmHg 90%
    05:00 +8°C° 0 mm 1 m/S 650 mmHg 80%
    06:00 +10°C° 0 mm 1 m/S 651 mmHg 71%
    07:00 +13°C° 0 mm 1 m/S 652 mmHg 62%
    08:00 +14°C° 0 mm 1 m/S 652 mmHg 55%
    09:00 +15°C° 0 mm 2 m/S 652 mmHg 48%
    10:00 +17°C° 0 mm 2 m/S 653 mmHg 40%
    11:00 +17°C° 0 mm 2 m/S 653 mmHg 40%
    12:00 +17°C° 0 mm 3 m/S 652 mmHg 41%
    13:00 +18°C° 0 mm 3 m/S 652 mmHg 41%
    14:00 +17°C° 0 mm 3 m/S 652 mmHg 45%
    15:00 +16°C° 0 mm 2 m/S 652 mmHg 49%
    16:00 +15°C° 0 mm 2 m/S 651 mmHg 53%
    17:00 +13°C° 0 mm 2 m/S 651 mmHg 64%
    18:00 +9°C° 0 mm 2 m/S 650 mmHg 76%
    19:00 +8°C° 0 mm 1 m/S 650 mmHg 87%
    20:00 +7°C° 0 mm 1 m/S 650 mmHg 89%
    21:00 +7°C° 0 mm 1 m/S 650 mmHg 90%
    22:00 +5°C° 0 mm 0 m/S 650 mmHg 92%
    23:00 +5°C° 0 mm 1 m/S 650 mmHg 92%

    5 Mai, Freitag

    Zeit Temperatur Niederschläge Wind Luftdruck Luftfeuchtigkeit
    00:00 +5°C° 0 mm 1 m/S 650 mmHg 92%
    01:00 +5°C° 0 mm 1 m/S 649 mmHg 92%
    02:00 +5°C° 0 mm 1 m/S 649 mmHg 91%
    03:00 +4°C° 0 mm 1 m/S 649 mmHg 91%
    04:00 +4°C° 0 mm 1 m/S 649 mmHg 90%
    05:00 +7°C° 0 mm 1 m/S 650 mmHg 80%
    06:00 +9°C° 0 mm 1 m/S 650 mmHg 70%
    07:00 +12°C° 0 mm 1 m/S 651 mmHg 59%
    08:00 +13°C° 0 mm 1 m/S 651 mmHg 53%
    09:00 +15°C° 0 mm 2 m/S 652 mmHg 47%
    10:00 +16°C° 0 mm 2 m/S 652 mmHg 42%
    11:00 +16°C° 0 mm 2 m/S 652 mmHg 42%
    12:00 +17°C° 0 mm 3 m/S 652 mmHg 42%
    13:00 +17°C° 0 mm 3 m/S 651 mmHg 42%
    14:00 +16°C° 0 mm 3 m/S 651 mmHg 44%
    15:00 +16°C° 0 mm 3 m/S 651 mmHg 47%
    16:00 +14°C° 0 mm 3 m/S 651 mmHg 50%
    17:00 +12°C° 0 mm 3 m/S 650 mmHg 61%
    18:00 +9°C° 0 mm 3 m/S 650 mmHg 73%
    19:00 +7°C° 0 mm 2 m/S 649 mmHg 84%
    20:00 +6°C° 0 mm 2 m/S 650 mmHg 86%
    21:00 +5°C° 0 mm 2 m/S 650 mmHg 88%
    22:00 +4°C° 0 mm 2 m/S 650 mmHg 90%
    23:00 +4°C° 0 mm 2 m/S 649 mmHg 89%
    Mehr zeigen